Flag for France Weather past 2 weeks in Ajaccio, Corsica, France

73 °F

Passing clouds.

Feels Like: 77 °F
Forecast: 58 / 72 °F
Wind: 12 mph from Northwest

Location: Ajaccio Airport

Current Time: Oct 7, 2015 at 12:39:32 PM

Latest Report: Oct 7, 2015 at 12:00 PM

Visibility: N/A

Pressure: 29.89 "Hg

Humidity: 57%

Dew point: 57 °F

Location of AjaccioLocation

Historic Weather in Ajaccio — Graph


Ajaccio temperature yesterday

Maximum temperature yesterday: 79 °F (at 11:30 AM)
Minimum temperature yesterday: 68 °F (at 1:30 AM)
Average temperature yesterday: 73 °F

Past Weeks' High & Low Weather Summary

High79 °F (Sep 25, 2:30 PM)100% (Oct 1, 1:00 AM)30.18 "Hg (Oct 1, 1:00 AM)
Low52 °F (Sep 24, 3:30 AM)36% (Sep 24, 1:30 PM)29.77 "Hg (Oct 7, 5:00 AM)
Average67 °F74%29.98 "Hg
* Reported Sep 22 11:00 AM — Oct 7 11:30 AM, Ajaccio, Weather by CustomWeather, © 2015

Note: Actual official high and low records may vary slightly from our data, if they occured in-between our weather recording intervals... More about our weather records


Ajaccio weather history for previous 24 hours

Time TempWeatherWind HumidityBarometerVisibility
11:30 AM
Wed, Oct 7
75 °FPassing clouds.10 mph54%29.89 "HgN/A
11:00 AM73 °FScattered clouds.6 mph57%29.89 "HgN/A
10:30 AM72 °FScattered clouds.2 mph65%29.89 "HgN/A
10:00 AM73 °FPassing clouds.3 mph65%29.89 "HgN/A
9:30 AM72 °FPassing clouds.No wind69%29.86 "HgN/A
9:00 AM68 °FPassing clouds.1 mph78%29.86 "HgN/A
8:30 AM66 °FPassing clouds.3 mph78%29.86 "HgN/A
8:00 AM66 °FPassing clouds.2 mph78%29.83 "HgN/A
7:30 AM68 °FPassing clouds.6 mph73%29.83 "HgN/A
7:00 AM68 °FPassing clouds.8 mph78%29.83 "HgN/A
6:30 AM66 °FPartly cloudy.3 mph88%29.83 "HgN/A
6:00 AM66 °FPassing clouds.3 mph88%29.80 "HgN/A
5:30 AM68 °FPassing clouds.3 mph88%29.80 "HgN/A
5:00 AM68 °FMild.3 mph83%29.77 "HgN/A
4:30 AM68 °FPassing clouds.2 mph83%29.80 "HgN/A
4:00 AM68 °FPassing clouds.6 mph83%29.80 "HgN/A
3:30 AM70 °FOvercast.8 mph78%29.80 "HgN/A
3:00 AM70 °FPartly cloudy.14 mph83%29.80 "HgN/A
2:30 AM72 °FPartly cloudy.9 mph78%29.80 "HgN/A
2:00 AM72 °FPartly cloudy.7 mph83%29.80 "HgN/A
1:30 AM72 °FPassing clouds.9 mph83%29.80 "HgN/A
1:00 AM72 °FPassing clouds.9 mph88%29.80 "HgN/A
12:30 AM72 °FPartly cloudy.8 mph88%29.80 "HgN/A
12:00 AM72 °FPassing clouds.3 mph88%29.80 "HgN/A
11:30 PM
Tue, Oct 6
72 °FPartly cloudy.3 mph88%29.80 "HgN/A
11:00 PM72 °FPassing clouds.2 mph88%29.80 "HgN/A
10:30 PM72 °FPassing clouds.5 mph88%29.83 "HgN/A
10:00 PM72 °FMostly cloudy.6 mph94%29.83 "HgN/A
9:30 PM72 °FPartly cloudy.6 mph94%29.83 "HgN/A
9:00 PM72 °FPassing clouds.7 mph94%29.80 "HgN/A
8:30 PM73 °FPartly cloudy.6 mph89%29.80 "HgN/A
8:00 PM73 °FPartly cloudy.7 mph89%29.80 "HgN/A
7:30 PM73 °FSunny.8 mph89%29.80 "Hg10 mi
7:00 PM73 °FPassing clouds.8 mph89%29.80 "HgN/A
6:30 PM73 °FPartly sunny.6 mph89%29.80 "HgN/A
6:00 PM75 °FBroken clouds.5 mph78%29.80 "HgN/A
5:30 PM77 °FBroken clouds.6 mph69%29.80 "HgN/A
5:00 PM77 °FBroken clouds.7 mph74%29.80 "HgN/A
4:30 PM75 °FBroken clouds.8 mph78%29.83 "HgN/A
3:30 PM79 °FScattered clouds.10 mph74%29.80 "HgN/A
3:00 PM79 °FScattered clouds.9 mph74%29.83 "HgN/A
2:30 PM79 °FScattered clouds.9 mph74%29.83 "HgN/A
2:00 PM79 °FPartly sunny.10 mph74%29.83 "HgN/A
1:30 PM79 °FPartly sunny.8 mph70%29.86 "HgN/A
1:00 PM79 °FPartly sunny.10 mph70%29.86 "HgN/A
12:30 PM79 °FPartly sunny.9 mph74%29.86 "HgN/A
12:00 PM79 °FPartly sunny.6 mph70%29.86 "HgN/A
Weather by CustomWeather, © 2015

See weather overviewHow to use our weather pages